Tracking 19431 objects as of 18-Dec-2018
HD Live streaming from Space Station
objects crossing your sky now

URSA MAIOR

Track URSA MAIOR now!
10-day predictions
URSA MAIOR is classified as:


NORAD ID: 42776
Int'l Code: 2017-036M
Perigee: 499.1 km
Apogee: 519.9 km
Inclination: 97.4 °
Period: 94.7 minutes
Semi major axis: 6880 km
RCS: Unknown
Launch date: June 23, 2017
Source: Italy (IT)
Launch site: SRIHARIKOTA (SRI)

Uplink (MHz):
Downlink (MHz): 435.950
Beacon (MHz):
Mode: 9600bps FSK
Call sign: URSAMR
Status: Active

aabbcc
Your satellite tracking list
Your tracking list is empty




NASA's NSSDC Master Catalog

Two Line Element Set (TLE):
1 42776U 17036M   18352.16267966  .00000662  00000-0  32740-4 0  9999
2 42776  97.3780  48.0848 0015138 135.9715 224.2730 15.21150643 82461
Source of the keplerian elements: AMSAT